User: anonymous   Login
Location: Caltech
(34.1382°N, 118.1253°W)
Time: 16:48:29
(UTC-07:00)
Language:

Cosmos 1975 - Orbit

View from above orbital plane
View from above orbital plane
View from above satellite
View from above satellite

Ground track
Ground track

The orbit data is extracted from the following two-line orbital elements,

1 19573U 88093A   15244.73860872  .00001012  00000-0  73164-4 0  9999
2 19573  82.5185 258.1624 0014920  12.4157 347.7433 15.02906198461463
Epoch (UTC): 01 September 2015 17:43:35
Eccentricity: 0.0014920
inclination: 82.5185°
perigee height: 547 km
apogee height: 568 km
right ascension of ascending node: 258.1624°
argument of perigee: 12.4157°
revolutions per day: 15.02906198
mean anomaly at epoch: 347.7433°
orbit number at epoch: 46146

The dashed part of the orbit path shows where the satellite is in the earth's shadow,  

DLR